01:04
Airports
History
Links
Donate
Help keep this website running!
PayPal
Bitcoin
Information on this page is community maintained and may be outdated or inaccurate and is intended for reference only or PC simulator navigating.
Always use approved charts for navigating.
CZFM
FORT MCPHERSON
FORT MCPHERSON (CZFM)
Fort McPherson, Northwest Territories, Canada
4
Lat/Lng:67° 24' 28.01" N / 134° 51' 36.99" W
67.40778 / -134.860275
Elevation:116'ft 35mMSL
ID / ICAO:CZFM
Runways:1
Longest:(11-29) 1,046.1m 3,432ft Gravel
Distance To
Airport ID:
Airport Radio Frequencies
MANDATORY FREQ: 122.1
Nearby VORs <50NM
Nearby NDBs
METARUpdated 05-22-17 22:00 GMT
Altimeter: 29.64
Visibility: 15.0 statute miles
Wind: 6 knots (010°)
Temp: 5°c 41°f
Humidity: 80.9%

METAR: CZFM 222200Z 01006KT 330V040 15SM SCT010 OVC020 05/02 A2964 RMK ST4ST4 SLP042

(Powered by phpweather)
Runway 11 / 29
Dimensions:1046.1 x 30.5m 3432' x 100'ft
Surface:Gravel
Edge Lights:Low intensity
Runway 11 [A]Runway 29 [B]
Heading:140°TH 320°TH
Lat:
Lng:
67° 24' 41.01"N
134° 52' 5.02"W
67° 24' 15"N
134° 51' 8.96"W
User Notes and Comments
Google Map
Nearby Airports
(C) Midway 16.5 NM
CBA4 SW 225°
4 Aklavik 56.5 NM
CYKD N 356°
(U) INUVIK MIKE ZUBKO 71.5 NM
CYEV (WX) NNE 30°
4 Eagle Plains 78.6 NM
AJ2 SW 216°
4 Old Crow 132.2 NM
CYOC (WX) W 274°
4 TUKTOYAKTUK 147.5 NM
CYUB (WX) NNE 18°
4 Oglivie River 149.5 NM
CFS4 SW 216°
VFR Chart
Flight Planning at SkyVector.com